Showing default

KUIPER-P2, 58013

Orbit data source: Space-Track

KUIPER-P2, 58013 is a payload satellite owned by Kuiper Systems (US) in LEO that was launched on Fri, 06 Oct 2023 UTC via an ATLAS V 501 launch vehicle from the Air Force Eastern Test Range (AFETR). Payloads include a variety of satellites, spacecraft, and rockets equipped with specific instruments for various scientific and technological missions. These include communications satellites like Starlink; space stations such as the ISS; scientific satellites like the Hubble; Earth observation satellites from companies like Planet Labs, Umbra, and HawkEye 360; GPS; miniature CubeSats for education and research; and military/defense satellites.

Loading next visibility...
KUIPER-P2 details
Identifier
58013, 2023-154A
Orbit
LEO
Last TLE update9 hours ago
Origin
Flag of USKuiper Systems (US)
ManufacturerKuiper Systems
MissionOperational Commercial Communications
Bus & MotorKUIPER, Unknown motor
Mass~600 kg wet, ~600 kg dry
Launch date (UTC)
2023-10-06 (1 year ago)
Launch vehicle
ATLAS V 501
Launch site
Air Force Eastern Test Range (AFETR)
Object type
Payload
Rocket body
Debris
Shape & HBRBox + 2 Pan, 10 m
Radar Cross Section10.304 m², Large (>1 m²)

Expand to show TLE details & history

TLE from 9 hours ago
0 KUIPER-P2
1 58013U 23154A   24356.34372417  .00029870  00000-0  76774-3 0  9993
2 58013  29.9704   5.2905 0010131 339.4955  20.5264 15.37939981 67721
Epoch: 2024-12-21T08:14Z
Definitive object data (Epoch: 2024-12-21T08:14:57.768Z)
Latitude-0.00001°
Longitude151.15355°
Altitude444.114 km
Speed7.652 km/s
True Right ascension00h 21m 09s
True Declination0° 00' 00"
Sunlit
Object was in daylight at TLE epoch
Visualization TLE readout
Latitude-24.13173°
Longitude19.24108°
Altitude458.823 km
Speed7.638 km/s
Apparent Right ascension13h 48m 43s
Apparent Declination-77° 14' 17"
Sunlit
Object is in daylight
Visualization observer readout
Local Sidereal Time16:05:39
Azimuth188.173° SSW
Elevation-29.061°
Doppler factor1
Orbital elements
Apogee altitude463.166 km
Perigee altitude449.318 km
Semi-major axis6,834.379 km
Eccentricity0.0010131
Inclination29.9704°
RAAN5.2905°
Arg. of periapsis339.4955°
True anomaly20.56715°
Mean anomaly20.5264°
Eccentric anomaly20.54677°
Mean motion3.84144 °/min
BSTAR0.00076774
Orbital period93.71 mins
Loading maneuver chart data...
Loading historical data...
Loading historical data...
Loading historical data...
Loading historical data...
Loading historical data...
Loading historical data...
Loading historical data...
Other satellites on launch #154 in the year 2023 (2023-10-06 UTC)

KUIPER-P2 Visibility forecast

Observer location: undefined°, undefined

Span
Click to sort rows by Start time (UTC) header in descending order
Start Az.
Max El. time (UTC)
Max El. Az.
Max El.
End time (UTC)
End Az.
4 mins2024-12-22 06:23:06.122Z214.682° SW2024-12-22 06:25:06.122Z179.627° S15.562°2024-12-22 06:27:06.122Z142.455° SSE
|